Regional Weather Roundup
Issued by NWS New Orleans/Baton Rouge, LA

Home | Current Version | Previous Version | Graphics & Text | Print | Product List | Glossary On
Versions: 1 2 3 4 5 6 7 8 9 10 11 12 13 14 15 16 17 18 19 20 21 22 23 24 25 26 27 28 29 30 31 32 33 34 35 36 37 38 39 40 41 42 43 44 45 46 47 48 49 50
537
ASUS44 KLIX 301710
RWRLIX
NEW ORLEANS REGIONAL WEATHER ROUNDUP
NATIONAL WEATHER SERVICE NEW ORLEANS LA
1200 PM CDT THU OCT 30 2014

NOTE: "FAIR" INDICATES FEW OR NO CLOUDS BELOW 12,000 FEET WITH NO
      SIGNIFICANT WEATHER AND/OR OBSTRUCTIONS TO VISIBILITY.
      SKY/WX - SKY CONDITION AND SIGNIFICANT WEATHER.
      TMP - AIR TEMPERATURE.     DP    - DEWPOINT TEMPERATURE.
      RH  - RELATIVE HUMIDITY.   PRES  - PRESSURE.
      HI  - HEAT INDEX.          WCI   - WIND CHILL INDEX.

*  THESE STATIONS ARE NOT NWS OR FAA STATIONS AND ARE NOT UNDER
   NWS QUALITY CONTROL.

LAZ038-040-048-061>063-065>067-069-301800-
SOUTHEAST LOUISIANA

CITY           SKY/WX    TMP DP  RH WIND       PRES   REMARKS
N.O. AUDUBON   NOT AVBL
N.O. INTL ARPT SUNNY     71  46  40 NE14      30.11F
N.O. LAKEFRONT SUNNY     70  46  42 NE13      30.12F
N.O. DOWNTOWN*   N/A     70  41  35 NE5       30.11F
SLIDELL        SUNNY     71  42  35 N16       30.11F
BATON ROUGE    SUNNY     70  41  34 NE13G24   30.13F
BOOTHVILLE     SUNNY     71  57  61 NE10G21   30.09S
BELLE CHASSE   SUNNY     72  44  36 NE12      30.10F
BOGALUSA*        N/A     72  37  28 E7        30.14F
NEW ROADS*       N/A     69  43  37 E8        30.14F
GONZALES*        N/A     71  44  38 NE5       30.12F
HAMMOND*       SUNNY     72  37  28 N7        30.14F
HOUMA*         SUNNY     73  46  38 NE12      30.10F
PORT FOURCHON* SUNNY     72  57  60 NE15      30.12S

$$

MSZ070-080>082-301800-
SOUTHERN MISSISSIPPI

CITY           SKY/WX    TMP DP  RH WIND       PRES   REMARKS
MCCOMB         SUNNY     68  35  29 NE8G16    30.14F
GULFPORT       SUNNY     71  41  33 NE14      30.09F
BILOXI         SUNNY     70  44  39 NE12      30.10F
PASCAGOULA     SUNNY     71  42  35 NE14      30.09F
STENNIS ARPT*  SUNNY     70  36  28 NE9       30.11F

$$

COASTAL OBSERVATIONS
LAKE AND NEARSHORE STATIONS

STATION/POSITION TIME  TEMP    WIND        PRES    WAVE
                       AIR SEA DIR/SP/G            HT/PER
                 (UTC) (F)     (DEG/KT/KT) (MB)    (FT/S)
PASCAGOULA       1700   69      20/ 11/ 15 1018.4
WAVELAND YACHT   1700   67      40/ 10/ 14 1018.6
GRAND ISLE       1700   71 76   50/ 11/ 18 1019.3
SOUTHWEST PASS   1700   76 78              1018.3
NEW CANAL        1700   66 71   50/ 12/ 13 1020.1
SHELL BEACH      1700   67 68   40/ 14/ 16 1019.4

OFFSHORE STATIONS

STATION/POSITION TIME  TEMP    WIND        PRES    WAVE
                       AIR SEA DIR/SP/G            HT/PER
                 (UTC) (F)     (DEG/KT/KT) (MB)    (FT/S)
64 S DAUPHIN ISL 1553   70 78   40/ 17/ 19 1018.0    4/ 5

$$




USA.gov is the U.S. government's official web portal to all federal, state and local government web resources and services.